• In Deutschland
  • Länderverzeichnis
  • Für 7 Tage
  • Wassertemperatur
  • Satellitenkarten
  • Wetterkarte
  • Widgets
  • user-avatar
    Anmelden

    Stündliche Wetter Bulyk

    Heute, 22 September, Samstag

    Zeit Temperatur Niederschläge Wind Luftdruck Luftfeuchtigkeit
    00:00 -2°C° 0 mm 2 m/S 656 mmHg 88%
    01:00 -3°C° 0 mm 2 m/S 656 mmHg 89%
    02:00 -3°C° 0 mm 2 m/S 656 mmHg 89%
    03:00 -3°C° 0 mm 2 m/S 657 mmHg 89%
    04:00 -3°C° 0 mm 2 m/S 657 mmHg 89%
    05:00 -2°C° 0 mm 2 m/S 657 mmHg 86%
    06:00 -1°C° 0 mm 2 m/S 658 mmHg 83%
    07:00 +1°C° 0 mm 2 m/S 658 mmHg 76%
    08:00 +4°C° 0 mm 1 m/S 659 mmHg 66%
    09:00 +7°C° 0 mm 1 m/S 659 mmHg 57%
    10:00 +9°C° 0 mm 1 m/S 660 mmHg 48%
    11:00 +10°C° 0 mm 1 m/S 660 mmHg 46%
    12:00 +11°C° 0 mm 1 m/S 660 mmHg 43%
    13:00 +11°C° 0 mm 0 m/S 660 mmHg 41%
    14:00 +12°C° 0 mm 1 m/S 659 mmHg 42%
    15:00 +12°C° 0 mm 1 m/S 659 mmHg 43%
    16:00 +11°C° 0 mm 1 m/S 659 mmHg 45%
    17:00 +9°C° 0 mm 1 m/S 658 mmHg 54%
    18:00 +7°C° 0 mm 1 m/S 658 mmHg 64%
    19:00 +4°C° 0 mm 1 m/S 657 mmHg 73%
    20:00 +3°C° 0 mm 1 m/S 657 mmHg 75%
    21:00 +3°C° 0 mm 1 m/S 657 mmHg 77%
    22:00 +2°C° 0 mm 1 m/S 657 mmHg 78%
    23:00 +2°C° 0 mm 1 m/S 657 mmHg 79%

    Morgen, 23 September, Sonntag

    Zeit Temperatur Niederschläge Wind Luftdruck Luftfeuchtigkeit
    00:00 +1°C° 0 mm 1 m/S 657 mmHg 80%
    01:00 +1°C° 0 mm 1 m/S 656 mmHg 81%
    02:00 +1°C° 0 mm 1 m/S 656 mmHg 82%
    03:00 0°C° 0 mm 1 m/S 656 mmHg 82%
    04:00 0°C° 0 mm 1 m/S 656 mmHg 83%
    05:00 +1°C° 0 mm 1 m/S 656 mmHg 79%
    06:00 +1°C° 0 mm 1 m/S 656 mmHg 76%
    07:00 +2°C° 0 mm 1 m/S 656 mmHg 72%
    08:00 +5°C° 0 mm 1 m/S 656 mmHg 65%
    09:00 +6°C° 0 mm 2 m/S 657 mmHg 57%
    10:00 +8°C° 0 mm 2 m/S 657 mmHg 49%
    11:00 +9°C° 0 mm 2 m/S 656 mmHg 47%
    12:00 +12°C° 0 mm 2 m/S 656 mmHg 44%
    13:00 +13°C° 0 mm 2 m/S 656 mmHg 42%
    14:00 +12°C° 0 mm 2 m/S 656 mmHg 43%
    15:00 +12°C° 0 mm 2 m/S 655 mmHg 45%
    16:00 +12°C° 0 mm 2 m/S 655 mmHg 46%
    17:00 +9°C° 0 mm 2 m/S 655 mmHg 55%
    18:00 +7°C° 0 mm 1 m/S 654 mmHg 64%
    19:00 +5°C° 0 mm 1 m/S 653 mmHg 73%
    20:00 +5°C° 0 mm 1 m/S 653 mmHg 74%
    21:00 +3°C° 0 mm 0 m/S 653 mmHg 75%
    22:00 +3°C° 0 mm 0 m/S 653 mmHg 76%
    23:00 +3°C° 0 mm 0 m/S 653 mmHg 77%

    übermorgen, 24 September, Montag

    Zeit Temperatur Niederschläge Wind Luftdruck Luftfeuchtigkeit
    00:00 +2°C° 0 mm 0 m/S 653 mmHg 77%
    01:00 +2°C° 0 mm 0 m/S 653 mmHg 78%
    02:00 +2°C° 0 mm 0 m/S 653 mmHg 78%
    03:00 +2°C° 0 mm 0 m/S 653 mmHg 79%
    04:00 +2°C° 0 mm 0 m/S 653 mmHg 79%
    05:00 +3°C° 0 mm 0 m/S 653 mmHg 78%
    06:00 +3°C° 0 mm 0 m/S 653 mmHg 77%
    07:00 +3°C° 0 mm 0 m/S 653 mmHg 75%
    08:00 +6°C° 0 mm 1 m/S 654 mmHg 67%
    09:00 +8°C° 0 mm 1 m/S 654 mmHg 60%
    10:00 +11°C° 0 mm 1 m/S 654 mmHg 52%
    11:00 +10°C° 0 mm 2 m/S 654 mmHg 50%
    12:00 +12°C° 0 mm 2 m/S 654 mmHg 48%
    13:00 +13°C° 0 mm 2 m/S 653 mmHg 45%
    14:00 +13°C° 0 mm 2 m/S 653 mmHg 46%
    15:00 +13°C° 0 mm 2 m/S 653 mmHg 48%
    16:00 +13°C° 0 mm 2 m/S 653 mmHg 49%
    17:00 +11°C° 0 mm 1 m/S 652 mmHg 57%
    18:00 +9°C° 0 mm 1 m/S 652 mmHg 66%
    19:00 +6°C° 0 mm 1 m/S 651 mmHg 75%
    20:00 +6°C° 0 mm 1 m/S 651 mmHg 76%
    21:00 +5°C° 0 mm 1 m/S 651 mmHg 77%
    22:00 +5°C° 0 mm 1 m/S 651 mmHg 78%
    23:00 +5°C° 0 mm 1 m/S 651 mmHg 79%

    25 September, Dienstag

    Zeit Temperatur Niederschläge Wind Luftdruck Luftfeuchtigkeit
    00:00 +3°C° 0 mm 0 m/S 651 mmHg 80%
    01:00 +3°C° 0 mm 0 m/S 651 mmHg 80%
    02:00 +3°C° 0 mm 0 m/S 651 mmHg 81%
    03:00 +3°C° 0 mm 0 m/S 651 mmHg 82%
    04:00 +2°C° 0 mm 0 m/S 651 mmHg 83%
    05:00 +3°C° 0 mm 0 m/S 651 mmHg 81%
    06:00 +4°C° 0 mm 0 m/S 652 mmHg 79%
    07:00 +4°C° 0 mm 0 m/S 652 mmHg 77%
    08:00 +8°C° 0 mm 1 m/S 652 mmHg 69%
    09:00 +10°C° 0 mm 1 m/S 653 mmHg 61%
    10:00 +12°C° 0 mm 1 m/S 653 mmHg 53%
    11:00 +13°C° 0 mm 1 m/S 653 mmHg 50%
    12:00 +14°C° 0 mm 2 m/S 653 mmHg 48%
    13:00 +15°C° 0 mm 2 m/S 653 mmHg 46%
    14:00 +15°C° 0 mm 2 m/S 652 mmHg 48%
    15:00 +14°C° 0 mm 2 m/S 652 mmHg 50%
    16:00 +14°C° 0 mm 2 m/S 652 mmHg 52%
    17:00 +12°C° 0 mm 1 m/S 652 mmHg 59%
    18:00 +10°C° 0 mm 1 m/S 651 mmHg 66%
    19:00 +8°C° 0 mm 1 m/S 651 mmHg 74%
    20:00 +8°C° 0 mm 1 m/S 651 mmHg 74%
    21:00 +8°C° 0 mm 1 m/S 651 mmHg 75%
    22:00 +7°C° 0 mm 2 m/S 652 mmHg 75%
    23:00 +6°C° 0 mm 2 m/S 652 mmHg 77%

    26 September, Mittwoch

    Zeit Temperatur Niederschläge Wind Luftdruck Luftfeuchtigkeit
    00:00 +6°C° 0 mm 2 m/S 652 mmHg 80%
    01:00 +6°C° 0 mm 2 m/S 652 mmHg 82%
    02:00 +5°C° 0 mm 2 m/S 652 mmHg 83%
    03:00 +5°C° 0 mm 2 m/S 652 mmHg 85%
    04:00 +4°C° 0 mm 3 m/S 652 mmHg 87%
    05:00 +4°C° 0.1 mm 3 m/S 653 mmHg 87%
    06:00 +4°C° 0.1 mm 3 m/S 653 mmHg 87%
    07:00 +4°C° 0.1 mm 3 m/S 654 mmHg 87%
    08:00 +4°C° 0.1 mm 3 m/S 654 mmHg 83%
    09:00 +5°C° 0.1 mm 3 m/S 654 mmHg 79%
    10:00 +6°C° 0.1 mm 4 m/S 655 mmHg 75%
    11:00 +7°C° 0 mm 4 m/S 655 mmHg 71%
    12:00 +7°C° 0 mm 4 m/S 655 mmHg 66%
    13:00 +8°C° 0 mm 4 m/S 655 mmHg 62%
    14:00 +8°C° 0 mm 4 m/S 655 mmHg 60%
    15:00 +9°C° 0 mm 3 m/S 654 mmHg 59%
    16:00 +9°C° 0 mm 3 m/S 654 mmHg 57%
    17:00 +7°C° 0 mm 3 m/S 654 mmHg 63%
    18:00 +6°C° 0 mm 2 m/S 654 mmHg 70%
    19:00 +4°C° 0 mm 2 m/S 654 mmHg 76%
    20:00 +3°C° 0 mm 2 m/S 654 mmHg 76%
    21:00 +4°C° 0 mm 1 m/S 654 mmHg 77%
    22:00 +3°C° 0 mm 1 m/S 654 mmHg 77%
    23:00 +3°C° 0 mm 1 m/S 654 mmHg 77%

    27 September, Donnerstag

    Zeit Temperatur Niederschläge Wind Luftdruck Luftfeuchtigkeit
    00:00 +3°C° 0 mm 1 m/S 654 mmHg 76%
    01:00 +3°C° 0 mm 1 m/S 653 mmHg 76%
    02:00 +2°C° 0 mm 1 m/S 653 mmHg 76%
    03:00 +2°C° 0 mm 1 m/S 653 mmHg 76%
    04:00 +2°C° 0 mm 1 m/S 653 mmHg 76%
    05:00 +3°C° 0 mm 1 m/S 654 mmHg 75%
    06:00 +3°C° 0 mm 1 m/S 654 mmHg 73%
    07:00 +4°C° 0 mm 1 m/S 654 mmHg 72%
    08:00 +5°C° 0 mm 2 m/S 655 mmHg 66%
    09:00 +7°C° 0 mm 2 m/S 655 mmHg 60%
    10:00 +9°C° 0 mm 2 m/S 655 mmHg 54%
    11:00 +10°C° 0 mm 2 m/S 655 mmHg 52%
    12:00 +10°C° 0 mm 2 m/S 655 mmHg 50%
    13:00 +12°C° 0 mm 2 m/S 654 mmHg 48%
    14:00 +9°C° 0.9 mm 3 m/S 654 mmHg 57%
    15:00 +8°C° 0.9 mm 3 m/S 654 mmHg 67%
    16:00 +5°C° 0.9 mm 3 m/S 653 mmHg 76%
    17:00 +4°C° 0.5 mm 3 m/S 654 mmHg 78%
    18:00 +3°C° 0.5 mm 3 m/S 654 mmHg 81%
    19:00 +2°C° 0.5 mm 3 m/S 654 mmHg 83%
    20:00 +2°C° 0.1 mm 3 m/S 655 mmHg 83%
    21:00 +1°C° 0.1 mm 3 m/S 655 mmHg 83%
    22:00 +1°C° 0.1 mm 2 m/S 656 mmHg 83%
    23:00 0°C° 0.1 mm 3 m/S 656 mmHg 83%
    Mehr zeigen